Location: Napier
(39.4830°S, 176.9170°E)
Time: 19:56:02
(UTC+13:00)

Cosmos 2263 Rocket - Pass Details

Date: 24 January 2019
Orbit: 823 x 849 km, 71.0° (Epoch: 16 February)

Event Time Altitude Azimuth Distance (km) Brightness Sun altitude
Rises 23:21:11 0° 220° (SW) 3,412 6.7 -24.6°
Reaches altitude 10° 23:24:19 10° 236° (WSW) 2,473 5.5 -24.9°
Maximum altitude 23:28:10 19° 280° (W) 1,911 4.2 -25.3°
Enters shadow 23:30:46 14° 312° (NW) 2,181 4.2 -25.6°
